Weather History for Lakeville, MN

Change the Weather History Date:

Friday, February 14, 2014

  Actual Average Record
Temperature  
Mean Temperature 5 °F -  
Max Temperature 12 °F 27 °F 50 °F (1954)
Min Temperature -2 °F 10 °F -21 °F (1951)
Degree Days  
Heating Degree Days 60    
Moisture  
Dew Point -2 °F    
Average Humidity 77    
Maximum Humidity 92    
Minimum Humidity 62    
Precipitation  
Precipitation 0.00 in - - ()
Sea Level Pressure  
Sea Level Pressure 29.91 in    
Wind  
Wind Speed 9 mph (WNW)    
Max Wind Speed 15 mph    
Max Gust Speed 20 mph    
Visibility 10 miles    
Events Snow    
Averages and records for this station are not official NWS values.
T = Trace of Precipitation, MM = Missing Value Source: NWS Daily Summary

Daily Weather History Graph

Daily Weather History Graph

Search for Another Location

Airport:

Trip Planner

Search our weather history database for the weather conditions in past years. The results will help you decide how hot, cold, wet, or windy it might be!

Date:

Astronomy

Feb. 14, 2014 Rise Set
Actual Time 7:14 AM CST 5:40 PM CST
Civil Twilight 6:44 AM CST 6:10 PM CST
Nautical Twilight 6:10 AM CST 6:44 PM CST
Astronomical Twilight 5:36 AM CST 7:18 PM CST
Moon 5:46 PM CST (2/14) 6:40 AM CST (2/14)
Length of Visible Light 11h 25m
Length of Day
10h 25m
Full, 100% of the Moon is Illuminated
Feb 14
Full
Feb 14
Full
Feb 22
Last Quarter
Mar 1
New
Mar 8
First Quarter

Hourly Weather History & Observations

Time (CST) Temp. Windchill Dew Point Humidity Pressure Visibility Wind Dir Wind Speed Gust Speed Precip Events Conditions
12:01 AM 1.4 °F -14.5 °F -4.0 °F 78% 29.73 in 10.0 mi West 10.4 mph - N/A   Clear
12:21 AM -0.4 °F -17.6 °F -4.0 °F 85% 29.74 in 10.0 mi West 11.5 mph - N/A   Clear
12:41 AM -0.4 °F -16.7 °F -5.8 °F 78% 29.74 in 10.0 mi West 10.4 mph - N/A   Clear
1:01 AM -0.4 °F -16.7 °F -4.0 °F 85% 29.74 in 10.0 mi West 10.4 mph - N/A   Clear
1:21 AM -0.4 °F -16.7 °F -4.0 °F 85% 29.74 in 10.0 mi West 10.4 mph - N/A   Clear
1:41 AM -0.4 °F -14.7 °F -5.8 °F 78% 29.74 in 10.0 mi West 8.1 mph - N/A   Clear
2:01 AM -0.4 °F -14.7 °F -5.8 °F 78% 29.74 in 10.0 mi WNW 8.1 mph - N/A   Clear
2:21 AM -0.4 °F -12.0 °F -5.8 °F 78% 29.75 in 10.0 mi WNW 5.8 mph - N/A   Clear
2:41 AM -0.4 °F -13.4 °F -4.0 °F 85% 29.74 in 10.0 mi NW 6.9 mph - N/A   Clear
3:00 AM -0.4 °F -12.0 °F -4.0 °F 85% 29.74 in 10.0 mi NW 5.8 mph - N/A   Clear
3:21 AM -0.4 °F -12.0 °F -4.0 °F 85% 29.73 in 10.0 mi NW 5.8 mph - N/A   Clear
3:41 AM -0.4 °F -12.0 °F -5.8 °F 78% 29.75 in 10.0 mi WNW 5.8 mph - N/A   Clear
4:00 AM -0.4 °F -13.4 °F -5.8 °F 78% 29.75 in 10.0 mi WNW 6.9 mph - N/A   Clear
4:21 AM -2.2 °F -15.6 °F -5.8 °F 85% 29.76 in 10.0 mi WNW 6.9 mph - N/A   Clear
4:41 AM -0.4 °F -16.7 °F -5.8 °F 78% 29.78 in 10.0 mi WNW 10.4 mph - N/A   Scattered Clouds
5:01 AM -0.4 °F -16.7 °F -5.8 °F 78% 29.80 in 10.0 mi WNW 10.4 mph - N/A   Scattered Clouds
5:21 AM -0.4 °F -16.7 °F -4.0 °F 85% 29.81 in 10.0 mi WNW 10.4 mph - N/A   Mostly Cloudy
5:41 AM -0.4 °F -14.7 °F -5.8 °F 78% 29.82 in 10.0 mi WNW 8.1 mph - N/A   Mostly Cloudy
6:01 AM -0.4 °F -15.7 °F -5.8 °F 78% 29.82 in 10.0 mi WNW 9.2 mph - N/A   Scattered Clouds
6:21 AM -0.4 °F -14.7 °F -5.8 °F 78% 29.83 in 5.0 mi WNW 8.1 mph - N/A Snow Light Snow
6:40 AM -2.2 °F -16.8 °F -5.8 °F 85% 29.84 in 10.0 mi NW 8.1 mph - N/A   Clear
7:01 AM -2.2 °F -16.8 °F -5.8 °F 85% 29.85 in 10.0 mi WNW 8.1 mph - N/A   Clear
7:21 AM -2.2 °F -16.8 °F -5.8 °F 85% 29.86 in 10.0 mi WNW 8.1 mph - N/A   Clear
7:40 AM -2.2 °F -16.8 °F -5.8 °F 85% 29.87 in 10.0 mi WNW 8.1 mph - N/A   Clear
8:01 AM -0.4 °F -13.4 °F -5.8 °F 78% 29.88 in 10.0 mi WNW 6.9 mph - N/A   Clear
8:21 AM -0.4 °F -16.7 °F -5.8 °F 78% 29.89 in 10.0 mi WNW 10.4 mph - N/A   Clear
8:41 AM 1.4 °F -11.3 °F -4.0 °F 78% 29.90 in 10.0 mi NW 6.9 mph - N/A   Clear
9:01 AM 1.4 °F -14.5 °F -2.2 °F 85% 29.90 in 10.0 mi NW 10.4 mph - N/A   Clear
9:21 AM 3.2 °F -12.2 °F -2.2 °F 78% 29.91 in 10.0 mi NW 10.4 mph - N/A   Clear
9:41 AM 5.0 °F -10.0 °F -2.2 °F 72% 29.91 in 10.0 mi NW 10.4 mph - N/A   Clear
10:00 AM 5.0 °F -10.0 °F -2.2 °F 72% 29.92 in 10.0 mi NW 10.4 mph - N/A   Clear
10:21 AM 6.8 °F -7.8 °F -0.4 °F 72% 29.93 in 10.0 mi NNW 10.4 mph - N/A   Clear
10:40 AM 6.8 °F -8.6 °F -0.4 °F 72% 29.93 in 10.0 mi NW 11.5 mph - N/A   Clear
11:01 AM 8.6 °F -4.7 °F -0.4 °F 67% 29.94 in 10.0 mi NNW 9.2 mph - N/A   Clear
11:21 AM 8.6 °F -4.7 °F -0.4 °F 67% 29.94 in 10.0 mi NW 9.2 mph - N/A   Clear
11:41 AM 8.6 °F -7.0 °F -0.4 °F 67% 29.94 in 10.0 mi NW 12.7 mph - N/A   Clear
12:01 PM 10.4 °F -3.3 °F -0.4 °F 62% 29.94 in 10.0 mi WNW 10.4 mph - N/A   Clear
12:21 PM 10.4 °F -2.4 °F 1.4 °F 67% 29.93 in 10.0 mi WNW 9.2 mph - N/A   Clear
12:41 PM 10.4 °F -1.5 °F 1.4 °F 67% 29.93 in 10.0 mi WNW 8.1 mph - N/A   Clear
1:00 PM 10.4 °F -4.8 °F 1.4 °F 67% 29.93 in 10.0 mi WNW 12.7 mph - N/A   Clear
1:21 PM 10.4 °F -2.4 °F 1.4 °F 67% 29.94 in 10.0 mi WNW 9.2 mph - N/A   Clear
1:41 PM 12.2 °F -1.0 °F 1.4 °F 62% 29.94 in 10.0 mi WNW 10.4 mph - N/A   Clear
2:01 PM 12.2 °F -3.1 °F 1.4 °F 62% 29.95 in 10.0 mi West 13.8 mph - N/A   Clear
2:21 PM 12.2 °F -0.2 °F 1.4 °F 62% 29.95 in 10.0 mi West 9.2 mph - N/A   Clear
2:40 PM 12.2 °F -2.5 °F 1.4 °F 62% 29.96 in 10.0 mi West 12.7 mph - N/A   Clear
3:01 PM 12.2 °F -3.1 °F 1.4 °F 62% 29.96 in 10.0 mi West 13.8 mph - N/A   Clear
3:21 PM 10.4 °F -5.4 °F 1.4 °F 67% 29.97 in 10.0 mi WNW 13.8 mph 19.6 mph N/A   Clear
3:41 PM 10.4 °F -5.4 °F 1.4 °F 67% 29.97 in 10.0 mi West 13.8 mph - N/A   Clear
4:01 PM 10.4 °F -6.0 °F 1.4 °F 67% 29.97 in 10.0 mi West 15.0 mph - N/A   Clear
4:21 PM 10.4 °F -4.1 °F 1.4 °F 67% 29.98 in 10.0 mi WNW 11.5 mph 16.1 mph N/A   Clear
4:41 PM 10.4 °F -3.3 °F 1.4 °F 67% 29.98 in 10.0 mi WNW 10.4 mph 16.1 mph N/A   Clear
5:01 PM 8.6 °F -5.5 °F 1.4 °F 73% 29.99 in 10.0 mi West 10.4 mph - N/A   Clear
5:21 PM 8.6 °F -7.0 °F -0.4 °F 67% 30.01 in 10.0 mi West 12.7 mph - N/A   Clear
5:41 PM 6.8 °F -6.9 °F -0.4 °F 72% 30.00 in 10.0 mi West 9.2 mph - N/A   Clear
6:01 PM 6.8 °F -3.5 °F -0.4 °F 72% 30.00 in 10.0 mi West 5.8 mph - N/A   Clear
6:21 PM 5.0 °F -6.9 °F -0.4 °F 78% 30.00 in 10.0 mi West 6.9 mph - N/A   Clear
6:41 PM 5.0 °F -6.9 °F -0.4 °F 78% 30.01 in 10.0 mi West 6.9 mph - N/A   Clear
7:01 PM 6.8 °F -4.8 °F -0.4 °F 72% 30.00 in 10.0 mi West 6.9 mph - N/A   Clear
7:21 PM 3.2 °F -6.2 °F -2.2 °F 78% 29.99 in 10.0 mi West 4.6 mph - N/A   Clear
7:41 PM 5.0 °F -4.1 °F -0.4 °F 78% 29.99 in 10.0 mi West 4.6 mph - N/A   Clear
8:01 PM 3.2 °F -6.2 °F -2.2 °F 78% 30.01 in 10.0 mi West 4.6 mph - N/A   Clear
8:20 PM 3.2 °F -6.2 °F -0.4 °F 85% 30.02 in 10.0 mi West 4.6 mph - N/A   Clear
8:41 PM 3.2 °F -7.8 °F -0.4 °F 85% 30.01 in 10.0 mi WSW 5.8 mph - N/A   Clear
9:01 PM 1.4 °F -11.3 °F -2.2 °F 85% 30.02 in 10.0 mi West 6.9 mph - N/A   Clear
9:20 PM 3.2 °F -11.3 °F -0.4 °F 85% 30.02 in 10.0 mi West 9.2 mph - N/A   Clear
9:41 PM 1.4 °F -12.5 °F -2.2 °F 85% 30.02 in 10.0 mi West 8.1 mph - N/A   Clear
10:01 PM -0.4 °F -13.4 °F -2.2 °F 92% 30.03 in 10.0 mi West 6.9 mph - N/A   Clear
10:20 PM -0.4 °F -14.7 °F -2.2 °F 92% 30.04 in 10.0 mi West 8.1 mph - N/A   Clear
10:41 PM 1.4 °F -8.3 °F -2.2 °F 85% 30.04 in 10.0 mi West 4.6 mph - N/A   Clear
11:01 PM 1.4 °F -6.2 °F -2.2 °F 85% 30.02 in 10.0 mi SW 3.5 mph - N/A   Clear
11:20 PM -0.4 °F -8.3 °F -4.0 °F 85% 30.02 in 10.0 mi WSW 3.5 mph - N/A   Clear
11:41 PM -0.4 °F -8.3 °F -4.0 °F 85% 30.02 in 10.0 mi SW 3.5 mph - N/A   Clear